Time,TemperatureF,DewpointF,PressureIn,WindDirection,WindDirectionDegrees,WindSpeedMPH,WindSpeedGustMPH,Humidity,HourlyPrecipIn,Conditions,Clouds,dailyrainin,SoftwareType,DateUTC
2013-03-17 00:02:00,7.0,0.0,30.20,North,5,2.0,5.0,73,0.00,,,0.00,,2013-03-17 05:02:00,
2013-03-17 00:12:00,7.0,0.0,30.20,North,5,2.0,5.0,73,0.00,,,0.00,,2013-03-17 05:12:00,
2013-03-17 00:22:00,7.0,0.0,30.21,North,6,1.0,2.0,74,0.00,,,0.00,,2013-03-17 05:22:00,
2013-03-17 00:32:00,6.0,0.0,30.21,NW,326,0.0,1.0,74,0.00,,,0.00,,2013-03-17 05:32:00,
2013-03-17 00:42:00,6.0,0.0,30.21,NW,326,0.0,1.0,74,0.00,,,0.00,,2013-03-17 05:42:00,
2013-03-17 00:52:00,6.0,0.0,30.21,NW,326,0.0,1.0,74,0.00,,,0.00,,2013-03-17 05:52:00,
2013-03-17 01:02:00,6.0,0.0,30.21,NW,326,0.0,1.0,74,0.00,,,0.00,,2013-03-17 06:02:00,
2013-03-17 01:12:00,6.0,0.0,30.21,NW,326,0.0,1.0,74,0.00,,,0.00,,2013-03-17 06:12:00,
2013-03-17 07:33:00,-2.0,-6.0,30.20,NE,44,0.0,0.0,83,0.00,,,0.00,,2013-03-17 12:33:00,
2013-03-17 07:43:00,-2.0,-6.0,30.20,NE,44,0.0,0.0,83,0.00,,,0.00,,2013-03-17 12:43:00,
2013-03-17 07:52:00,-2.0,-6.0,30.20,ENE,78,0.0,1.0,83,0.00,,,0.00,,2013-03-17 12:52:00,
2013-03-17 08:02:00,-1.0,-5.0,30.18,East,98,0.0,3.0,82,0.00,,,0.00,,2013-03-17 13:02:00,
2013-03-17 08:12:00,-1.0,-5.0,30.18,East,98,0.0,3.0,82,0.00,,,0.00,,2013-03-17 13:12:00,
2013-03-17 08:22:00,0.0,-5.0,30.18,SE,128,0.0,3.0,80,0.00,,,0.00,,2013-03-17 13:22:00,
2013-03-17 08:32:00,2.0,-3.0,30.17,SE,128,1.0,3.0,78,0.00,,,0.00,,2013-03-17 13:32:00,
2013-03-17 08:42:00,2.0,-3.0,30.17,SE,128,1.0,3.0,78,0.00,,,0.00,,2013-03-17 13:42:00,
2013-03-17 08:52:00,3.0,-3.0,30.18,ESE,106,2.0,5.0,76,0.00,,,0.00,,2013-03-17 13:52:00,
2013-03-17 09:02:00,4.0,-2.0,30.18,East,84,4.0,6.0,74,0.00,,,0.00,,2013-03-17 14:02:00,
2013-03-17 09:12:00,4.0,-2.0,30.18,East,84,4.0,6.0,74,0.00,,,0.00,,2013-03-17 14:12:00,
2013-03-17 09:22:00,5.0,-2.0,30.18,East,91,2.0,6.0,73,0.00,,,0.00,,2013-03-17 14:22:00,
2013-03-17 09:32:00,6.0,-1.0,30.18,ESE,112,3.0,7.0,71,0.00,,,0.00,,2013-03-17 14:32:00,
2013-03-17 09:42:00,6.0,-1.0,30.18,ESE,112,3.0,7.0,71,0.00,,,0.00,,2013-03-17 14:42:00,
2013-03-17 09:53:00,8.0,0.0,30.18,SSE,150,2.0,6.0,68,0.00,,,0.00,,2013-03-17 14:53:00,
2013-03-17 10:02:00,10.0,0.0,30.18,SE,132,4.0,7.0,64,0.00,,,0.00,,2013-03-17 15:02:00,
2013-03-17 10:12:00,10.0,0.0,30.18,SE,132,4.0,7.0,64,0.00,,,0.00,,2013-03-17 15:12:00,
2013-03-17 10:23:00,11.0,1.0,30.18,ESE,110,5.0,9.0,62,0.00,,,0.00,,2013-03-17 15:23:00,
2013-03-17 10:33:00,13.0,2.0,30.16,SE,129,5.0,10.0,60,0.00,,,0.00,,2013-03-17 15:33:00,
2013-03-17 10:42:00,13.0,2.0,30.16,SE,129,5.0,10.0,60,0.00,,,0.00,,2013-03-17 15:42:00,
2013-03-17 10:53:00,15.0,3.0,30.16,East,91,6.0,13.0,58,0.00,,,0.00,,2013-03-17 15:53:00,
2013-03-17 11:03:00,15.0,3.0,30.16,SW,231,5.0,13.0,57,0.00,,,0.00,,2013-03-17 16:03:00,
2013-03-17 11:12:00,15.0,3.0,30.16,SW,231,5.0,13.0,57,0.00,,,0.00,,2013-03-17 16:12:00,
2013-03-17 11:23:00,15.0,3.0,30.16,SW,231,5.0,13.0,57,0.00,,,0.00,,2013-03-17 16:23:00,
2013-03-17 11:33:00,15.0,3.0,30.16,SW,231,5.0,13.0,57,0.00,,,0.00,,2013-03-17 16:33:00,
2013-03-17 16:03:00,26.0,9.0,29.98,SSE,160,6.0,11.0,48,0.00,,,0.00,,2013-03-17 21:03:00,
2013-03-17 16:12:00,26.0,9.0,29.98,SSE,160,6.0,11.0,48,0.00,,,0.00,,2013-03-17 21:12:00,
2013-03-17 16:22:00,27.0,10.0,29.97,SSE,148,5.0,10.0,48,0.00,,,0.00,,2013-03-17 21:22:00,
2013-03-17 16:33:00,25.0,9.0,29.97,SSE,155,6.0,11.0,49,0.00,,,0.00,,2013-03-17 21:33:00,
2013-03-17 16:43:00,25.0,9.0,29.97,SSE,155,6.0,11.0,49,0.00,,,0.00,,2013-03-17 21:43:00,
2013-03-17 16:52:00,25.0,9.0,29.97,SSE,151,5.0,9.0,51,0.00,,,0.00,,2013-03-17 21:52:00,
2013-03-17 17:03:00,26.0,10.0,29.96,SSW,207,5.0,11.0,51,0.00,,,0.00,,2013-03-17 22:03:00,
2013-03-17 17:12:00,26.0,10.0,29.96,South,190,5.0,10.0,51,0.00,,,0.00,,2013-03-17 22:12:00,
2013-03-17 17:23:00,26.0,10.0,29.96,South,190,5.0,10.0,51,0.00,,,0.00,,2013-03-17 22:23:00,
2013-03-17 17:33:00,26.0,10.0,29.96,South,174,6.0,9.0,51,0.00,,,0.00,,2013-03-17 22:33:00,
2013-03-17 17:42:00,26.0,10.0,29.96,South,174,6.0,9.0,51,0.00,,,0.00,,2013-03-17 22:42:00,
2013-03-17 17:53:00,26.0,11.0,29.95,SE,131,5.0,11.0,53,0.00,,,0.00,,2013-03-17 22:53:00,
2013-03-17 18:02:00,25.0,10.0,29.96,SE,139,3.0,9.0,53,0.00,,,0.00,,2013-03-17 23:02:00,
2013-03-17 18:12:00,25.0,10.0,29.96,SE,139,3.0,9.0,53,0.00,,,0.00,,2013-03-17 23:12:00,
2013-03-17 18:22:00,25.0,10.0,29.96,SE,139,3.0,9.0,53,0.00,,,0.00,,2013-03-17 23:22:00,
2013-03-17 18:32:00,25.0,11.0,29.93,South,179,5.0,11.0,55,0.00,,,0.00,,2013-03-17 23:32:00,
2013-03-17 18:42:00,25.0,11.0,29.93,South,179,5.0,11.0,55,0.00,,,0.00,,2013-03-17 23:42:00,
2013-03-17 18:53:00,24.0,11.0,29.92,ESE,111,5.0,12.0,56,0.00,,,0.00,,2013-03-17 23:53:00,
2013-03-17 19:03:00,24.0,11.0,29.91,SE,145,5.0,12.0,57,0.00,,,0.00,,2013-03-18 00:03:00,
2013-03-17 19:12:00,24.0,11.0,29.91,SE,145,5.0,12.0,57,0.00,,,0.00,,2013-03-18 00:12:00,
2013-03-17 19:22:00,24.0,11.0,29.91,SSE,162,6.0,11.0,57,0.00,,,0.00,,2013-03-18 00:22:00,
2013-03-17 19:33:00,23.0,10.0,29.91,SSE,165,6.0,10.0,58,0.00,,,0.00,,2013-03-18 00:33:00,
2013-03-17 19:42:00,23.0,10.0,29.91,SSE,165,6.0,10.0,58,0.00,,,0.00,,2013-03-18 00:42:00,
2013-03-17 19:52:00,23.0,11.0,29.90,SSE,155,5.0,9.0,59,0.00,,,0.00,,2013-03-18 00:52:00,
2013-03-17 20:02:00,23.0,11.0,29.89,SSE,152,6.0,12.0,59,0.00,,,0.00,,2013-03-18 01:02:00,
2013-03-17 20:12:00,23.0,11.0,29.89,SSE,152,6.0,12.0,59,0.00,,,0.00,,2013-03-18 01:12:00,
2013-03-17 20:22:00,23.0,11.0,29.89,SSE,159,5.0,9.0,59,0.00,,,0.00,,2013-03-18 01:22:00,
2013-03-17 20:32:00,23.0,11.0,29.89,SSE,159,5.0,9.0,59,0.00,,,0.00,,2013-03-18 01:32:00,
2013-03-17 20:42:00,23.0,11.0,29.89,SSE,159,5.0,9.0,59,0.00,,,0.00,,2013-03-18 01:42:00,
2013-03-17 20:52:00,23.0,11.0,29.89,SSE,159,5.0,9.0,59,0.00,,,0.00,,2013-03-18 01:52:00,
2013-03-17 21:02:00,23.0,11.0,29.89,SSE,159,5.0,9.0,59,0.00,,,0.00,,2013-03-18 02:02:00,
2013-03-17 21:52:00,23.0,12.0,29.87,SE,145,3.0,7.0,61,0.00,,,0.00,,2013-03-18 02:52:00,
2013-03-17 22:03:00,23.0,12.0,29.86,SSE,167,4.0,8.0,62,0.00,,,0.00,,2013-03-18 03:03:00,
2013-03-17 22:11:00,23.0,12.0,29.86,SSE,167,4.0,8.0,62,0.00,,,0.00,,2013-03-18 03:11:00,
2013-03-17 22:22:00,23.0,12.0,29.86,SE,129,3.0,8.0,62,0.00,,,0.00,,2013-03-18 03:22:00,
2013-03-17 22:33:00,23.0,12.0,29.86,SSE,162,3.0,6.0,63,0.00,,,0.00,,2013-03-18 03:33:00,
2013-03-17 22:42:00,23.0,12.0,29.86,SSE,162,3.0,6.0,63,0.00,,,0.00,,2013-03-18 03:42:00,
2013-03-17 22:53:00,24.0,14.0,29.85,SSE,165,3.0,6.0,64,0.00,,,0.00,,2013-03-18 03:53:00,
2013-03-17 23:03:00,24.0,14.0,29.85,SE,141,3.0,7.0,64,0.00,,,0.00,,2013-03-18 04:03:00,
2013-03-17 23:13:00,24.0,14.0,29.85,SE,141,3.0,7.0,64,0.00,,,0.00,,2013-03-18 04:13:00,
2013-03-17 23:23:00,24.0,14.0,29.84,SE,125,3.0,10.0,64,0.00,,,0.00,,2013-03-18 04:23:00,
2013-03-17 23:33:00,24.0,14.0,29.84,SSE,149,4.0,8.0,64,0.00,,,0.00,,2013-03-18 04:33:00,
2013-03-17 23:42:00,24.0,14.0,29.84,SSE,149,4.0,8.0,64,0.00,,,0.00,,2013-03-18 04:42:00,
2013-03-17 23:53:00,24.0,14.0,29.83,SSE,164,3.0,11.0,65,0.00,,,0.00,,2013-03-18 04:53:00,